User: anonymous   Login
Location: Fort Wayne
(41.1310°N, 85.1290°W)
Time: 21:48:08
(UTC-05:00)
Language:

Cosmos 1953 - Orbit

View from above orbital plane
View from above orbital plane
View from above satellite
View from above satellite

Ground track
Ground track

The orbit data is extracted from the following two-line orbital elements,

1 19210U 88050A   14329.47017308  .00003625  00000-0  26864-3 0  5725
2 19210 082.5192 218.3801 0013554 197.2905 162.7860 15.02769638437300
Epoch (UTC): 25 November 2014 11:17:02
Eccentricity: 0.0013554
inclination: 82.5192°
perigee height: 549 km
apogee height: 568 km
right ascension of ascending node: 218.3801°
argument of perigee: 197.2905°
revolutions per day: 15.02769638
mean anomaly at epoch: 162.7860°
orbit number at epoch: 43730

The dashed part of the orbit path shows where the satellite is in the earth's shadow,  

DLR